Location: The Saddle
(36.8333°N, 80.3417°W)
Time: 23:01:40
(UTC-04:00)

AO-7 - Visible Passes

Search period start: 13 July 2025 00:00
Search period end: 23 July 2025 00:00
Orbit: 1439 x 1459 km, 102.0° (Epoch: 13 July)

Date Brightness Start Highest point End Pass type
(mag) Time Alt. Az. Time Alt. Az. Time Alt. Az.
17 Jul ? 05:45:13 10° ENE 05:49:18 14° E 05:53:22 10° ESE visible
19 Jul ? 05:39:04 10° ENE 05:42:03 12° E 05:45:02 10° ESE visible
21 Jul ? 05:34:05 10° E 05:34:47 10° E 05:35:29 10° E visible
